FW9354 Weather Reports


time (UTC)temp
F
wind
direction
speed
knots
gust
knots
rain 1hr
in
rain 24hr
in
rain mn
in
humidity
%
barometer
mb
20260503071542 48 0 0.0 0.9 0.01 0.06 0.00 88 1015.5
20260503054543 49 0 0.0 1.7 0.00 0.05 0.05 85 1016.2
20260503053039 49 259 0.0 2.6 0.00 0.05 0.05 84 1016.2
20260503051545 49 270 0.0 3.5 0.00 0.05 0.05 85 1016.1
20260503050045 49 0 0.0 1.7 0.00 0.05 0.05 86 1016.4
20260503044559 50 0 0.0 1.7 0.00 0.05 0.05 85 1016.4
20260503043045 50 242 0.0 2.6 0.00 0.05 0.05 85 1016.2
20260503041607 49 290 0.0 2.6 0.00 0.05 0.05 88 1016.1
20260503040052 49 0 0.0 0.0 0.00 0.05 0.05 90 1016.1
20260503034546 49 0 0.0 0.9 0.00 0.05 0.05 91 1016.1
20260503033052 50 0 0.0 2.6 0.01 0.05 0.05 90 1015.7
20260503031544 50 205 0.0 3.5 0.05 0.05 0.05 89 1015.3
20260503030050 50 192 0.0 0.9 0.05 0.05 0.05 89 1015.1
20260503024542 51 208 0.0 1.7 0.05 0.05 0.05 88 1015.1
20260503023051 53 208 0.0 1.7 0.04 0.04 0.04 80 1015.4
20260503021550 55 0 0.9 3.5 0.00 0.00 0.00 69 1015.5
20260503020051 56 142 0.0 0.9 0.00 0.00 0.00 66 1015.2
20260503014551 56 0 0.0 2.6 0.00 0.00 0.00 67 1015.2
20260503013042 56 0 0.0 0.9 0.00 0.00 0.00 64 1015.2
20260503011556 57 24 5.2 12.2 0.00 0.00 0.00 61 1015.4
20260503010046 58 111 1.7 6.1 0.00 0.00 0.00 63 1015.2
20260503004545 58 0 0.0 0.9 0.00 0.00 0.00 64 1014.8
20260503003044 60 0 0.9 2.6 0.00 0.00 0.00 54 1014.5
20260503001546 61 0 0.0 5.2 0.00 0.00 0.00 51 1013.7
20260503000040 62 293 0.0 4.3 0.00 0.00 0.00 50 1013.7
20260502234550 62 111 0.0 1.7 0.00 0.00 0.00 48 1013.6
20260502233048 63 222 0.9 2.6 0.00 0.00 0.00 45 1013.5
20260502231545 64 203 0.9 2.6 0.00 0.00 0.00 42 1013.7
20260502230045 65 225 0.9 5.2 0.00 0.00 0.00 40 1014.0
20260502224543 66 271 2.6 10.4 0.00 0.00 0.00 39 1014.2
20260502223044 64 266 0.9 5.2 0.00 0.00 0.00 37 1014.4
20260502221542 65 250 0.9 5.2 0.00 0.00 0.00 36 1014.4
20260502220124 67 253 0.9 7.0 0.00 0.00 0.00 37 1014.3
20260502214545 68 155 0.0 1.7 0.00 0.00 0.00 36 1014.7
20260502213045 68 0 0.0 1.7 0.00 0.00 0.00 36 1015.0
20260502211551 69 0 1.7 4.3 0.00 0.00 0.00 34 1014.7
20260502210100 69 249 0.9 4.3 0.00 0.00 0.00 34 1014.9
20260502204559 69 195 0.0 0.9 0.00 0.00 0.00 37 1015.2
20260502203100 67 346 0.0 7.0 0.00 0.00 0.00 37 1015.2
20260502201546 68 0 1.7 7.0 0.00 0.00 0.00 33 1015.2
20260502200045 68 176 4.3 11.3 0.00 0.00 0.00 29 1015.1
20260502194549 69 60 0.9 5.2 0.00 0.00 0.00 30 1015.1
20260502193041 69 152 1.7 4.3 0.00 0.00 0.00 32 1015.4
20260502191551 68 142 3.5 8.7 0.00 0.00 0.00 31 1015.9
20260502190056 69 81 1.7 6.1 0.00 0.00 0.00 30 1016.2
20260502184545 69 158 2.6 7.8 0.00 0.00 0.00 29 1016.2
20260502183053 69 149 0.9 7.0 0.00 0.00 0.00 31 1016.2
20260502181544 68 233 0.9 6.1 0.00 0.00 0.00 35 1016.3
20260502163106 60 120 0.0 3.5 0.00 0.00 0.00 53 1016.4
20260502161551 60 150 0.9 2.6 0.00 0.00 0.00 57 1016.4
20260502151543 53 0 0.0 0.9 0.00 0.00 0.00 65 1016.4
20260502123101 43 0 0.0 0.9 0.00 0.00 0.00 78 1015.4
20260502121551 43 0 0.0 0.9 0.00 0.00 0.00 76 1015.4
20260502114549 44 206 0.0 1.7 0.00 0.00 0.00 74 1015.4
20260502113048 44 0 0.0 0.0 0.00 0.00 0.00 73 1015.5
20260502111548 45 0 0.0 0.0 0.00 0.00 0.00 72 1015.6
20260502110044 45 0 0.0 1.7 0.00 0.00 0.00 71 1015.5
20260502104551 46 250 0.0 2.6 0.00 0.00 0.00 70 1015.5
20260502103048 46 0 0.0 0.9 0.00 0.00 0.00 71 1015.6
20260502101546 46 0 0.0 2.6 0.00 0.00 0.00 70 1015.5